Torna al catalogo

TITAN 3C TRANSTAGE DEB

AttivoMEO
NORAD 43455·DEBRIS·🇺🇸 United States

Lanciato Feb 9, 1969 da Cape Canaveral Space Force Station

Loading…

Prossimi Passaggi (prossime 24 ore)

TLE

AggiornatoSource: Space-Track

Epoca: Sep 13, 2026, 16:46 UTC

1 43455U 69013N   26256.69909881 -.00000137  00000-0  00000-0 0  9993
2 43455   1.8074 128.4290 0214184  49.4824 312.9489  0.94015346 29188

Traccia TITAN 3C TRANSTAGE DEB in tempo reale con AllMySat

Download on the App Store